RH
10 10 9 12 12 41 89 96 88 87 81 75 77 79 78 81 86 87 86 74 77 83 71 65 64 60 59 55 52 52 50 50 51 49 46 44 42 44 49 54 56 56 56 59 62 62 57 47 35 26 19 17 14 13 13 11 10 9 7 6 5 4 4 4 3 4 3 3 4 4 4 4 4 4 4 4 4 4 5 5 4 4 4 4 4 4 4 4
10 12 9 14 12 27 79 99 93 90 79 70 69 70 67 67 68 67 72 74 77 79 73 71 69 64 60 54 52 51 48 50 54 53 48 46 46 50 54 56 58 60 62 64 59 49 39 28 20 16 14 13 12 11 10 8 7 6 5 4 4 4 4 4 3 3 3 4 4 4 4 4 4 4 5 4 5 5 5 4 4 4 4 4 5 5 5 5
10 12 11 15 12 28 78 99 98 96 82 70 60 57 57 58 65 62 63 71 76 77 73 70 69 67 63 58 55 50 49 54 57 54 51 51 54 57 60 63 64 62 57 49 38 28 22 18 15 13 12 11 10 8 7 6 5 5 4 4 4 4 3 4 4 3 4 4 4 5 5 5 5 5 5 5 5 5 5 4 4 4 4 5 5 5 4 5
11 12 13 13 15 45 89 99 99 99 86 75 64 66 69 63 67 66 61 64 70 74 73 71 69 66 64 62 60 53 49 52 53 53 56 58 62 66 67 64 55 44 34 26 20 17 15 14 13 12 11 9 7 5 4 4 4 4 4 4 4 3 4 4 4 4 4 5 5 5 5 5 5 5 5 5 5 5 5 5 5 5 4 4 5 4 4 4
14 13 14 13 29 69 98 99 100 101 93 85 78 83 83 69 66 69 67 65 65 66 66 67 66 65 66 65 64 55 50 56 56 58 64 65 68 68 59 47 33 24 19 17 16 14 13 12 11 9 7 6 5 5 4 4 4 4 4 4 4 4 4 5 5 5 5 5 6 5 6 6 6 6 6 6 5 5 5 5 5 5 4 4 4 4 4 3
17 16 15 19 51 88 100 100 100 100 99 96 92 88 82 76 74 75 74 73 69 66 65 67 68 70 71 67 63 56 58 68 65 63 67 65 61 50 37 27 20 18 16 15 14 12 12 10 7 6 5 5 4 4 4 4 3 4 5 4 4 5 5 5 5 5 6 6 6 6 6 6 7 7 7 7 6 6 6 6 5 5 5 5 5 4 4 4
18 18 19 35 73 98 100 99 97 99 101 99 99 92 85 84 81 78 77 78 77 74 73 75 75 73 71 68 66 63 68 77 72 65 59 51 40 28 22 20 18 17 15 14 12 10 8 6 5 5 4 4 4 4 4 4 4 4 5 5 5 5 5 5 6 6 6 7 7 7 8 8 8 8 7 7 7 7 7 7 6 6 6 5 5 5 5 5
19 19 28 57 91 102 100 100 97 99 100 98 99 96 93 90 84 80 79 80 82 81 78 75 74 73 74 76 76 78 80 78 68 54 39 30 25 21 20 18 17 15 13 11 9 6 5 5 5 4 4 4 4 4 4 4 4 4 5 5 5 6 6 6 6 7 7 7 8 8 9 9 9 9 9 10 9 9 9 8 8 7 7 7 7 7 6 6
22 31 52 80 99 101 99 100 98 101 100 99 100 99 98 94 88 83 81 84 85 82 79 77 79 80 82 84 83 80 72 58 44 32 24 22 20 18 17 16 15 13 10 8 6 5 5 5 5 4 4 4 4 4 4 5 5 5 5 5 6 6 6 6 7 7 8 9 9 10 11 11 11 12 12 12 11 11 11 10 10 10 10 10 9 9 8 8
38 58 81 93 98 100 100 100 100 101 100 100 101 101 100 95 88 82 81 83 83 83 82 82 83 83 80 73 63 51 40 32 26 22 21 20 18 17 16 14 12 9 6 5 5 5 5 5 4 4 4 4 5 5 5 5 5 5 5 5 6 6 7 7 8 8 9 10 10 12 13 13 13 14 14 14 14 13 13 12 12 12 12 12 12 12 12 12
65 82 92 88 86 90 96 99 100 100 100 100 100 99 95 89 83 77 74 72 72 74 73 69 66 62 55 44 35 28 25 24 22 20 19 18 17 16 13 11 8 6 5 5 5 5 4 5 4 4 5 5 5 5 6 5 5 5 5 6 6 7 7 7 8 9 10 11 12 14 16 16 15 15 15 14 14 14 14 14 13 14 15 15 15 15 15 15
82 86 88 81 74 74 82 92 96 96 97 96 95 92 89 83 75 66 59 55 53 51 49 45 40 37 33 28 27 25 23 22 20 19 18 17 15 12 9 6 5 5 5 5 5 5 4 5 5 5 5 5 6 5 6 5 6 6 5 7 7 7 8 9 9 10 11 12 12 15 17 18 17 16 16 15 15 14 14 15 15 15 16 16 16 16 16 16
82 79 79 76 69 64 67 76 85 90 90 91 91 87 83 74 65 57 50 45 39 36 34 33 31 29 28 27 26 23 22 21 20 18 16 13 10 8 6 5 5 5 5 5 5 5 5 5 5 6 6 5 6 6 6 6 6 6 6 7 8 8 9 10 10 10 11 13 13 15 18 20 18 17 17 15 14 15 16 16 16 17 17 17 17 17 18 18
74 70 68 66 62 59 60 63 71 81 84 85 84 81 75 66 58 53 47 41 36 34 33 32 30 28 27 27 25 23 22 20 18 16 12 9 7 5 5 5 5 5 5 5 5 5 5 6 6 6 6 6 6 6 7 7 7 7 7 8 8 9 10 11 12 12 11 13 14 14 17 21 20 19 18 16 15 17 17 17 17 18 18 19 19 19 19 20
66 63 60 57 53 50 54 60 63 68 75 78 75 70 66 60 55 50 44 40 37 36 34 32 30 28 27 26 24 22 21 19 16 12 8 6 6 6 6 5 5 5 5 5 5 6 6 6 7 6 7 7 7 7 7 8 8 8 8 9 9 9 10 11 12 13 12 13 14 14 16 21 22 21 19 16 16 18 19 19 19 20 21 22 22 21 21 22
62 61 59 54 50 44 44 54 60 62 67 70 68 64 59 54 49 44 41 39 37 35 33 31 30 27 27 25 22 20 19 16 12 8 7 6 6 6 5 5 5 5 5 6 6 6 7 7 7 7 7 8 8 8 8 9 8 8 9 10 10 10 11 11 12 12 13 13 14 15 16 20 24 24 21 19 19 20 21 22 23 24 25 26 26 25 25 24
61 60 59 56 54 48 40 43 53 62 65 63 61 56 50 44 39 35 33 32 30 29 28 28 27 25 25 23 20 18 16 13 9 7 6 6 6 6 6 5 5 6 6 6 7 7 7 8 8 8 8 8 8 8 9 9 9 9 9 10 10 11 11 12 12 11 13 15 15 17 17 21 27 26 23 22 22 22 23 23 25 26 26 28 30 29 29 29
62 56 57 58 58 54 46 41 45 55 57 52 46 40 36 32 29 27 26 25 24 24 24 24 23 22 22 20 18 16 13 10 8 7 6 6 6 5 5 6 5 6 6 7 7 8 8 8 9 8 8 9 9 10 10 11 11 10 10 10 11 12 13 15 14 12 14 15 16 18 18 21 27 27 23 23 24 25 25 25 25 26 27 28 29 30 31 32
62 53 52 56 60 59 53 47 43 44 43 38 34 31 31 30 28 27 25 24 24 24 24 23 22 22 21 17 15 12 9 8 7 6 6 6 6 6 6 6 6 7 7 7 8 8 8 9 9 9 9 10 10 10 11 11 12 12 12 12 13 14 15 17 17 14 15 17 16 19 20 22 26 25 22 23 25 26 26 26 25 25 26 26 27 28 29 30
64 54 51 51 54 57 55 52 46 41 37 35 36 36 35 33 30 29 26 25 25 25 24 23 22 20 17 14 11 9 7 7 6 6 6 6 6 7 6 7 7 7 8 8 8 9 9 9 10 10 10 11 11 11 12 12 13 13 13 14 15 15 15 18 18 16 18 18 17 19 21 22 24 23 21 23 25 26 26 25 25 25 25 26 27 27 27 28
69 58 53 52 51 51 50 49 45 42 41 41 42 39 36 34 32 29 27 25 25 24 23 21 19 16 13 10 7 7 6 6 6 6 6 6 7 7 7 8 8 8 8 8 8 9 9 10 11 11 11 11 12 12 12 13 13 14 15 15 15 16 16 17 17 17 18 18 18 20 21 22 23 21 20 21 22 22 23 23 24 26 26 27 28 28 29 29
74 61 55 54 52 49 46 44 42 43 44 43 41 38 35 34 29 26 24 22 20 18 17 15 13 11 9 7 6 6 6 6 6 6 6 7 8 8 8 8 8 8 9 9 9 10 10 10 11 12 12 12 12 13 14 14 15 15 16 15 15 17 17 16 17 18 17 16 17 19 20 20 20 19 19 20 20 21 21 23 24 25 26 27 28 29 30 30
74 66 61 57 53 50 45 42 43 43 42 40 38 36 33 30 25 21 19 16 13 12 11 10 8 8 7 6 6 6 6 6 6 7 7 8 9 9 9 8 9 9 9 9 9 10 11 11 11 12 12 12 13 13 14 15 15 16 17 16 16 17 18 17 16 17 17 17 17 18 19 20 20 19 20 20 20 20 21 22 24 26 28 29 30 31 31 32
73 69 67 62 55 49 44 40 39 38 37 34 32 29 25 22 19 17 14 12 10 9 9 8 7 6 6 6 6 6 6 6 7 8 9 10 10 9 9 9 8 9 9 10 10 10 11 11 11 12 11 12 13 14 14 14 15 16 16 16 16 17 18 18 18 18 18 18 18 18 18 19 20 20 21 22 23 24 25 26 27 28 29 31 33 36 39 40
71 69 69 65 56 48 42 32 26 25 25 23 21 20 18 16 14 13 12 10 9 8 8 8 7 7 7 7 6 7 7 7 9 10 11 10 9 8 8 8 8 9 9 9 10 10 11 11 11 12 12 13 13 14 14 14 15 16 17 18 17 17 17 18 18 18 18 18 20 22 22 23 24 24 24 25 26 27 28 30 33 37 41 44 47 50 52 52
70 68 69 68 58 50 42 28 17 14 14 13 13 13 13 13 11 10 11 10 8 8 8 8 9 10 10 10 9 9 10 11 11 11 10 9 8 8 8 8 8 8 8 9 9 10 11 11 12 12 13 13 14 15 15 16 16 16 17 17 18 19 20 21 22 23 23 23 24 24 25 26 28 30 32 35 38 41 44 48 51 51 49 44 41 37 35 33
69 68 69 70 62 51 42 31 20 14 11 10 11 10 10 10 9 9 10 10 8 9 9 9 9 11 12 11 11 11 11 11 10 9 8 7 7 7 7 7 8 8 9 9 10 10 11 12 13 14 15 16 16 16 17 18 18 19 21 22 22 22 22 23 24 25 27 28 31 35 41 47 50 51 53 53 51 49 47 44 38 32 24 17 14 12 10 9
70 68 70 72 66 52 43 36 27 19 14 12 11 10 10 9 8 8 9 8 8 9 10 10 10 11 11 10 10 10 10 9 8 8 7 7 7 7 7 7 7 8 9 10 11 12 13 14 15 16 17 18 19 20 21 22 21 21 21 22 23 26 31 36 41 45 49 52 54 54 54 52 46 40 37 32 27 21 17 14 11 8 6 5 5 5 5 5
68 68 73 77 69 53 43 39 32 24 18 14 12 10 10 8 8 9 8 8 8 9 9 9 10 9 9 8 8 8 7 7 7 6 6 7 7 7 7 8 9 10 12 12 13 14 15 17 18 19 20 21 21 21 20 21 24 29 34 41 48 53 57 58 56 51 47 43 37 30 24 18 13 10 8 7 6 5 5 4 4 4 5 5 5 5 5 6
64 68 77 80 70 52 42 39 36 29 23 17 13 11 10 9 9 9 8 8 9 9 8 8 7 7 7 6 6 6 6 6 6 6 6 6 7 8 9 11 12 13 14 15 16 17 18 19 18 18 19 20 23 28 35 44 52 58 60 59 56 49 40 33 26 18 13 11 8 6 5 4 5 5 5 6 5 6 6 6 6 6 6 6 6 6 6 6
61 69 80 83 69 49 41 41 37 32 26 19 14 12 11 11 11 9 7 8 9 8 7 7 6 6 6 6 6 6 6 6 6 7 8 9 10 11 12 13 14 16 17 17 17 17 17 17 20 27 35 43 51 57 62 60 55 48 37 27 21 15 9 7 6 5 4 4 4 5 5 6 6 6 7 7 7 8 8 7 7 7 7 7 7 7 7 7
60 69 82 84 65 45 41 41 38 34 26 18 15 13 12 12 10 9 8 8 8 7 6 6 6 6 6 6 6 6 7 8 9 9 10 11 13 14 15 16 16 16 16 16 18 22 28 36 47 58 63 63 60 52 42 31 21 14 8 6 6 5 4 5 4 5 5 5 5 6 7 7 7 8 8 8 8 8 8 8 8 8 8 7 8 7 7 7
59 71 84 83 60 43 42 41 38 33 23 17 15 13 12 11 9 9 8 7 7 7 7 7 7 7 7 7 8 9 9 10 11 12 13 14 15 16 15 15 16 19 24 31 40 50 58 61 61 56 47 37 29 19 12 8 6 5 5 5 5 5 5 5 5 6 6 6 6 6 8 9 9 8 9 9 9 9 8 9 8 8 8 8 8 8 8 8
60 75 86 78 55 42 42 41 38 31 23 19 15 13 12 10 9 9 8 7 7 7 7 7 7 8 9 9 10 11 12 13 14 15 15 15 15 16 19 25 33 45 54 60 62 60 55 45 33 23 15 10 8 5 5 5 5 5 5 5 5 6 7 7 7 7 7 7 7 7 9 10 10 10 11 10 9 9 9 10 10 10 10 10 9 10 9 9
65 80 86 71 49 40 40 38 33 26 20 17 13 11 10 9 9 8 7 8 7 8 8 9 10 10 11 12 13 14 14 15 15 15 16 20 27 35 43 52 60 64 62 54 44 35 25 16 10 7 5 5 4 4 5 5 5 5 5 6 6 7 8 9 9 9 10 11 9 9 10 10 11 12 12 11 10 11 11 11 12 12 11 12 12 12 12 12
71 85 80 61 44 38 36 31 24 18 14 12 10 9 9 8 8 7 8 8 8 9 10 10 12 12 13 14 14 14 14 16 21 27 34 44 54 59 60 58 54 46 36 25 17 12 9 6 5 5 5 5 5 5 5 4 5 6 6 7 7 8 10 11 11 11 12 12 11 11 12 12 14 15 14 14 13 13 14 14 14 15 15 16 16 16 17 17
79 84 69 51 40 35 31 24 18 14 11 10 9 9 8 8 8 8 9 10 10 11 11 12 14 13 14 14 16 21 26 35 45 50 55 59 60 54 45 35 27 19 13 9 6 5 5 5 4 4 5 5 5 5 5 6 6 6 6 7 8 10 12 12 13 13 14 15 14 13 14 15 18 19 17 15 17 18 18 18 19 20 21 23 25 27 29 29
80 73 56 43 35 30 24 18 14 11 10 10 9 9 9 9 9 10 10 11 11 12 13 13 13 15 20 26 34 43 50 56 60 59 55 48 38 30 21 15 11 8 6 5 5 4 4 4 4 4 5 5 6 6 6 6 6 7 8 9 10 11 12 13 14 15 18 19 17 16 17 18 19 20 19 20 23 24 24 26 29 32 34 35 37 38 37 36
63 54 45 37 29 23 17 13 11 10 10 10 9 9 10 10 10 10 11 12 12 12 14 17 23 31 40 47 53 57 58 57 52 44 34 24 17 12 9 7 6 5 5 4 4 4 4 4 4 5 6 6 6 7 7 8 9 10 12 11 11 12 13 15 15 18 23 23 21 21 20 20 20 19 20 23 25 26 30 37 39 38 36 34 36 39 42 44
46 43 37 29 22 17 13 11 11 10 10 10 10 10 10 10 11 12 12 12 15 20 27 36 46 51 54 56 55 52 47 39 30 21 14 10 8 7 6 5 4 4 4 4 4 5 5 5 5 5 6 6 8 9 10 12 12 12 13 12 12 13 14 17 17 20 24 23 23 25 24 20 17 16 19 25 30 35 40 44 42 41 47 52 54 57 57 54
43 37 28 20 16 13 11 11 11 10 10 10 10 10 11 11 12 13 16 22 31 41 48 53 55 54 53 51 44 36 27 19 13 9 7 6 6 5 4 5 4 4 5 4 5 5 5 6 5 6 7 8 10 11 12 13 12 13 14 12 13 14 16 20 20 20 22 20 20 24 25 17 12 18 26 27 31 40 47 52 54 56 62 63 57 52 48 42
38 27 20 15 13 12 11 11 11 10 10 10 11 11 12 13 17 24 34 43 50 54 54 54 52 48 43 36 27 19 13 9 8 6 5 5 4 5 4 4 4 4 4 4 5 6 6 6 7 8 10 11 12 12 12 13 12 14 16 14 14 17 20 23 21 18 17 15 15 18 19 15 13 22 30 32 40 54 58 61 62 55 48 42 36 36 36 35
29 21 16 13 12 12 11 11 11 11 11 11 11 13 17 25 36 45 52 54 54 53 51 49 44 36 27 20 15 11 8 7 6 5 5 5 4 4 4 4 5 5 5 5 6 6 8 9 10 11 11 12 12 12 13 13 13 16 19 18 17 19 20 20 18 17 16 14 14 14 13 13 13 16 25 38 53 59 51 47 45 38 34 34 34 35 35 35
27 18 14 13 12 12 11 11 11 11 11 12 16 25 36 47 53 55 54 52 50 49 45 38 30 22 16 12 9 7 6 6 5 5 5 4 4 5 4 5 5 5 6 6 7 9 11 12 13 12 11 11 12 13 14 14 14 17 21 21 19 19 19 18 16 16 15 14 14 13 13 13 12 14 23 33 39 38 32 31 31 28 28 31 33 33 33 33
24 17 14 14 12 12 12 12 12 12 15 24 36 48 54 56 54 51 50 49 45 40 33 25 18 13 10 8 7 7 6 5 5 5 4 4 5 5 5 5 6 6 7 8 10 12 12 13 13 13 13 13 14 15 17 18 17 18 22 22 20 19 18 17 17 16 15 14 13 13 14 14 13 16 23 27 28 27 25 23 21 20 21 23 27 29 30 32
21 17 15 13 12 13 13 12 14 21 34 47 55 57 55 52 50 48 46 42 36 29 22 16 12 9 8 7 7 6 5 5 5 5 4 5 5 5 6 7 7 9 10 11 13 13 12 13 13 13 14 15 17 18 19 22 22 21 23 22 20 19 18 18 17 16 15 15 12 12 16 16 17 22 25 25 24 23 20 18 17 16 16 18 23 27 31 36
19 16 14 13 14 13 13 18 29 43 54 57 55 52 50 49 47 45 40 33 25 19 14 11 9 8 8 7 6 5 5 5 5 5 5 5 6 7 8 8 10 11 13 13 13 13 12 12 13 14 14 15 18 19 20 22 22 22 22 21 20 20 19 18 18 16 16 15 13 14 18 20 23 26 27 25 24 24 22 20 17 15 17 23 29 33 36 38
17 15 14 13 12 15 25 39 51 57 56 52 49 48 47 46 42 37 29 22 16 13 10 9 8 7 7 6 6 5 5 5 5 6 6 7 7 8 9 11 13 13 13 13 13 13 13 13 13 13 13 15 19 20 20 21 21 21 21 21 21 20 20 19 18 17 16 15 16 19 24 26 29 31 31 29 29 28 24 19 17 18 22 29 34 33 34 38
15 14 12 14 21 35 49 57 58 55 50 47 47 47 44 39 34 27 20 15 12 10 9 8 7 7 6 6 5 5 5 6 6 7 7 8 9 11 12 13 13 13 13 13 13 14 14 14 15 14 13 15 19 20 20 20 20 21 22 23 22 22 22 21 19 18 18 19 23 29 32 33 34 36 36 33 33 30 24 20 19 20 26 31 32 33 37 43
12 13 19 32 46 56 59 56 52 49 47 46 46 42 37 30 24 18 14 11 10 8 8 8 7 6 6 5 5 6 6 6 7 8 9 10 12 13 14 14 14 13 13 13 14 15 15 15 16 16 15 16 19 21 20 21 22 23 24 24 24 24 24 22 20 20 22 24 30 37 40 37 38 41 40 36 34 29 23 20 19 24 34 39 38 41 46 49
20 31 44 55 60 58 54 51 48 47 47 45 40 34 28 22 17 13 11 10 9 8 8 7 7 6 6 6 6 6 7 8 8 10 11 12 14 14 14 14 14 14 14 15 15 16 16 17 18 19 17 17 21 23 23 24 25 25 26 26 27 27 25 23 21 22 26 31 38 45 46 43 43 44 41 38 34 28 23 19 19 28 42 46 47 52 55 56
45 55 60 60 57 54 51 49 48 47 45 39 32 26 21 16 13 11 9 9 8 8 7 7 7 6 6 6 6 7 8 9 10 12 13 14 15 15 15 15 14 15 15 16 16 16 18 19 20 21 20 20 23 25 24 26 27 27 29 30 30 29 27 25 23 23 29 39 48 53 51 50 51 50 47 42 34 26 21 17 20 35 49 54 56 61 64 65
Wind_Speed
31 31 29 28 27 26 25 26 28 28 27 27 26 26 26 25 24 24 24 23 23 22 22 25 26 25 25 25 26 26 26 26 25 25 25 24 23 23 23 22 22 21 21 21 20 20 20 19 19 19 19 19 20 21 21 22 22 22 21 19 19 22 24 24 25 24 26 27 26 28 28 30 27 25 29 29 28 28 28 31 35 38 36 33 34 35 32 31
32 32 30 30 29 29 28 28 30 28 27 27 26 25 25 25 24 23 23 24 27 27 26 26 25 25 25 25 26 25 25 25 24 24 24 23 23 22 22 22 22 21 21 20 19 18 18 18 19 20 20 20 20 21 21 20 20 21 19 18 20 23 24 24 26 26 25 25 28 28 27 29 30 29 29 29 29 27 29 33 36 37 36 33 32 33 33 31
32 32 31 31 31 30 29 28 30 28 25 26 25 24 23 22 21 20 21 22 25 28 29 28 26 26 26 26 25 25 25 24 24 24 23 23 22 21 21 21 20 19 19 18 17 17 18 19 20 21 21 21 20 20 21 18 19 21 18 19 21 23 23 23 26 28 26 26 28 28 27 27 29 31 30 30 29 27 31 34 34 33 32 31 31 33 35 31
32 32 31 32 31 29 27 26 29 29 25 25 23 22 22 21 20 19 20 21 23 25 26 26 26 26 26 26 25 24 24 23 23 23 22 21 20 20 20 19 18 17 17 17 17 18 19 19 20 20 20 21 20 19 21 19 18 20 19 19 22 24 23 23 26 27 26 27 28 27 26 27 28 30 30 30 29 28 32 32 30 30 29 30 30 33 36 33
30 30 31 31 28 26 24 23 28 28 24 24 23 22 22 21 21 20 20 21 22 23 24 24 25 24 24 24 23 23 22 21 22 21 20 19 19 19 18 17 17 17 17 18 19 19 19 20 20 20 20 20 20 19 21 21 19 20 20 21 23 24 24 25 27 26 25 27 27 26 26 27 28 29 29 30 30 28 29 29 29 30 30 31 31 32 34 35
27 28 29 28 24 22 22 21 26 27 24 25 25 24 23 21 21 21 21 22 22 22 22 23 23 23 22 22 22 22 20 20 20 19 18 18 17 17 17 18 18 18 18 18 19 19 19 19 19 19 19 20 21 20 22 21 20 20 21 24 25 24 24 25 26 26 25 25 25 25 26 27 28 27 28 29 29 26 26 27 29 30 31 31 32 32 33 33
24 26 25 24 21 21 22 22 26 29 27 26 26 24 23 22 22 22 22 23 23 22 22 22 22 22 21 21 20 20 19 19 18 17 17 16 16 17 18 18 18 19 19 18 19 19 19 19 19 19 20 21 21 21 23 22 23 22 22 26 26 25 25 25 25 26 25 24 24 25 25 27 28 26 26 27 26 25 26 28 29 30 31 32 32 32 32 32
21 23 21 21 21 22 23 23 26 29 29 27 26 24 24 24 24 24 23 23 23 22 21 20 20 20 19 18 18 17 17 17 16 16 15 15 16 17 18 18 19 19 19 18 18 18 18 19 19 21 21 21 21 22 24 24 25 25 24 25 26 26 26 25 25 25 25 23 23 24 24 26 27 26 24 24 25 26 27 28 29 30 31 31 31 31 31 32
19 19 19 21 22 23 22 25 27 28 28 26 25 24 24 24 24 23 23 22 21 20 18 17 17 16 16 16 15 14 15 15 15 15 15 15 16 17 18 18 18 18 18 17 17 18 18 19 20 21 22 22 22 24 25 25 26 26 26 25 25 26 26 25 25 25 24 23 23 22 24 26 27 25 23 24 25 26 27 28 28 29 30 30 30 31 31 32
16 17 17 19 22 21 19 24 27 28 26 24 23 23 23 23 22 21 20 18 16 15 15 14 14 13 13 13 12 13 14 14 15 15 15 16 17 17 17 18 17 17 16 16 17 18 19 19 20 21 22 23 24 25 26 27 27 27 27 25 24 25 25 25 26 25 23 22 23 22 22 26 26 25 24 24 26 26 27 28 28 29 29 29 30 31 31 31
14 15 16 16 18 18 17 18 21 23 22 21 21 21 21 20 19 17 15 14 13 13 13 13 12 12 12 12 12 13 14 14 14 15 16 17 16 16 17 17 16 16 16 16 18 19 20 20 21 22 23 25 26 26 27 27 28 28 27 24 24 25 24 25 25 25 24 23 23 22 21 24 25 25 25 25 27 28 28 28 29 29 28 28 30 30 30 30
14 14 14 14 13 14 14 14 16 17 18 19 19 19 18 17 15 13 12 12 12 13 13 12 12 12 12 12 13 13 14 14 14 15 16 16 15 15 15 15 15 16 16 17 18 19 20 21 22 23 24 26 27 27 26 27 27 28 27 24 24 26 24 24 26 25 25 24 23 21 20 21 24 26 26 27 30 30 29 28 28 28 28 28 29 30 30 31
14 13 12 12 12 12 13 14 15 16 17 18 17 17 16 15 14 12 12 12 12 12 12 12 12 12 12 13 13 13 14 14 15 15 15 14 14 14 14 14 15 16 18 18 19 20 21 22 23 24 26 27 27 26 26 26 27 27 27 25 24 25 24 24 26 27 26 25 24 22 18 18 23 25 25 29 32 31 30 29 28 28 29 29 29 30 30 32
12 12 12 12 12 13 13 14 15 16 17 16 16 16 15 15 14 13 13 13 13 12 12 12 12 12 13 13 13 13 13 14 14 14 14 13 13 14 14 15 16 17 19 19 19 20 21 22 24 25 26 27 27 26 26 26 27 26 27 26 25 25 25 24 24 27 29 27 26 24 18 17 22 24 27 32 32 30 31 31 31 31 30 30 31 32 32 33
11 11 11 11 11 12 13 14 15 15 16 16 15 14 14 14 13 13 13 13 13 13 12 12 12 13 13 13 13 13 13 13 13 13 13 13 14 15 16 16 18 18 19 20 20 21 22 23 25 25 26 27 27 26 25 26 27 27 26 27 27 26 26 25 23 26 29 29 28 26 23 20 22 24 29 34 32 29 31 33 34 34 34 34 34 34 35 35
10 9 10 11 11 11 12 14 14 14 15 15 15 14 14 13 13 13 13 13 13 13 13 12 12 13 13 13 13 13 13 13 12 12 12 13 14 16 17 18 18 19 19 20 20 21 23 24 25 26 26 26 26 26 26 26 28 27 25 26 27 27 27 27 26 27 29 30 30 29 27 24 25 27 29 32 32 31 32 33 35 36 37 37 37 38 38 39
8 8 9 10 10 10 11 11 12 14 14 14 14 14 14 13 12 12 12 12 12 12 12 12 12 13 12 12 13 13 13 12 12 12 12 14 15 16 18 19 19 20 20 20 21 22 23 24 25 27 27 26 27 27 26 26 28 29 27 25 26 27 28 27 29 31 30 29 31 32 31 29 31 32 31 32 33 33 34 35 36 37 38 39 40 40 41 42
8 8 8 9 10 10 10 10 10 12 12 12 12 12 12 11 11 10 10 10 10 10 10 11 11 12 12 12 13 12 13 12 12 12 13 14 16 17 18 19 20 21 21 21 22 23 24 24 25 27 28 26 26 28 27 27 28 29 30 29 28 28 28 28 30 34 33 31 32 33 33 33 36 38 36 36 35 35 36 37 38 39 40 41 41 42 43 44
9 8 8 9 9 9 10 10 9 9 10 11 11 11 10 9 9 9 8 9 9 9 9 10 11 11 11 12 12 12 12 12 12 13 14 15 16 17 18 19 20 21 21 22 22 24 25 24 25 28 29 29 28 28 28 28 29 29 30 31 31 30 29 29 32 35 35 35 35 35 35 37 42 43 41 40 39 39 40 40 41 42 43 43 43 44 45 47
10 9 8 7 7 8 9 9 8 8 9 10 10 9 8 8 8 8 8 8 8 8 9 9 10 10 10 11 11 12 12 12 12 14 15 16 17 18 19 19 20 21 22 23 22 24 26 25 26 28 30 31 31 30 30 30 30 31 31 31 33 33 32 33 35 36 36 38 38 38 39 40 45 46 44 44 44 44 45 45 46 46 46 47 46 47 47 49
10 9 8 7 5 6 6 7 7 8 8 8 8 7 7 7 7 7 7 7 7 8 8 9 10 10 10 11 11 11 12 12 13 15 16 18 18 19 20 20 21 21 22 24 24 24 25 26 27 29 31 32 32 33 33 32 33 33 34 34 34 35 36 37 39 39 39 41 40 41 43 45 49 49 48 48 48 49 49 50 50 50 50 50 50 50 50 50
10 9 8 7 5 4 4 5 6 7 6 6 6 6 6 6 6 6 6 6 7 7 8 8 9 10 10 11 11 12 12 12 14 16 17 19 19 19 20 21 21 21 22 24 25 25 26 26 27 30 32 33 33 34 35 35 35 36 36 38 38 38 40 41 43 43 44 44 44 44 46 49 51 51 51 52 52 52 53 54 54 54 54 54 54 53 53 53
10 9 8 6 4 4 4 5 5 5 5 5 5 5 5 5 5 4 4 5 6 7 7 8 9 10 10 11 11 13 14 14 16 17 18 19 20 20 21 21 22 23 23 24 26 27 28 28 29 31 32 33 34 35 36 36 37 38 39 41 41 42 43 45 46 47 47 48 48 48 51 53 54 54 54 54 54 55 56 56 57 57 57 57 57 57 57 57
10 9 8 6 4 4 4 4 4 4 4 4 4 4 4 3 3 2 3 4 6 6 7 7 8 9 10 11 13 14 15 16 17 18 19 20 21 21 22 22 23 24 25 27 28 29 30 30 32 33 34 34 35 36 38 38 39 40 41 43 44 45 46 47 48 49 49 50 51 52 54 56 56 56 56 56 56 57 58 58 59 60 60 60 60 60 60 61
9 9 8 6 4 3 3 4 3 3 3 3 2 2 1 1 1 2 3 4 5 6 7 8 8 10 11 13 14 15 17 18 19 20 20 21 21 22 23 24 26 26 26 28 30 30 31 32 33 35 35 36 37 38 39 40 40 41 43 44 46 47 48 49 50 51 50 51 51 53 57 58 58 58 59 58 58 59 61 61 61 62 62 62 61 61 61 62
8 8 7 5 4 3 3 3 3 3 2 2 1 1 1 2 2 3 4 4 6 7 8 9 10 11 12 14 15 17 18 19 20 21 21 22 23 24 25 25 27 28 28 29 31 31 32 33 35 35 36 37 38 39 40 40 41 43 44 45 46 48 49 49 51 52 52 52 52 54 57 59 59 61 61 61 61 62 63 63 63 62 62 61 60 60 60 61
7 7 5 4 3 3 3 3 3 2 2 2 2 1 1 2 3 4 5 5 6 8 9 10 11 12 14 15 16 18 19 20 21 22 22 24 24 25 26 27 28 28 29 31 32 33 33 35 36 36 37 38 39 40 41 41 42 43 45 46 47 48 49 50 51 52 54 55 54 54 57 60 61 62 62 61 61 61 61 61 61 61 61 60 60 60 61 62
6 6 4 3 3 3 2 2 2 2 2 2 2 1 2 3 3 5 5 6 7 9 10 10 11 13 15 16 17 19 19 20 22 22 23 24 25 26 28 28 29 29 30 32 33 34 35 36 37 38 38 39 40 41 42 43 44 45 46 47 48 49 50 51 52 53 54 56 55 52 54 58 59 59 59 59 58 58 58 59 59 60 60 61 62 62 63 64
5 5 4 3 3 2 1 1 2 2 2 2 2 2 2 3 4 5 6 7 8 9 10 11 13 14 15 17 18 19 20 21 22 22 23 25 26 27 28 29 30 31 32 33 34 35 37 37 38 39 40 40 41 42 43 45 45 46 48 48 49 50 50 51 51 52 52 53 53 50 50 54 56 57 57 57 57 57 58 58 59 60 61 62 63 63 64 65
5 4 4 3 3 2 1 1 1 1 1 2 2 2 3 4 5 6 7 8 9 10 11 12 13 15 16 17 17 18 19 21 22 23 24 26 27 28 29 30 31 32 34 35 36 37 37 39 40 40 41 41 42 44 45 46 46 47 48 48 48 48 48 49 49 50 51 51 51 50 50 52 55 56 57 57 57 57 58 59 59 61 62 63 63 64 65 66
4 4 3 3 3 2 0 0 0 0 1 2 2 2 3 4 6 7 7 9 10 11 12 12 13 14 16 16 17 18 20 21 23 24 25 26 27 29 30 31 32 33 35 36 37 38 39 40 41 41 41 42 43 44 45 45 46 46 47 48 48 48 49 49 49 51 52 51 51 51 52 52 54 56 56 56 56 57 58 59 60 61 62 63 64 64 65 67
3 3 3 4 4 3 1 0 1 1 2 2 2 3 4 5 7 8 8 10 11 12 12 13 14 15 16 17 19 20 21 22 24 25 27 27 28 30 31 33 33 35 36 37 39 40 40 41 42 42 42 43 43 44 43 44 46 46 47 49 50 51 51 51 50 51 51 51 50 51 53 54 55 56 56 56 56 57 58 60 61 62 63 64 65 66 67 67
4 4 4 5 4 3 2 1 2 2 2 3 3 4 5 6 8 9 9 10 11 12 13 14 15 16 17 18 20 21 22 24 25 27 28 29 30 31 33 35 36 37 38 39 40 41 41 42 42 42 43 44 44 45 45 46 47 48 49 49 51 52 52 52 52 53 54 54 52 52 54 55 55 57 57 56 58 60 61 62 63 64 65 67 68 68 69 69
5 5 5 6 5 3 2 2 3 3 3 4 4 5 7 8 9 10 10 11 12 13 13 15 16 17 18 19 21 22 23 25 26 28 30 31 32 33 34 36 37 38 39 40 41 41 42 42 42 42 43 45 46 46 47 47 48 49 50 51 51 51 53 54 55 56 57 58 57 56 56 58 58 58 58 59 62 64 64 64 65 66 68 69 70 70 71 71
6 6 6 6 5 4 3 3 3 4 4 5 6 7 7 9 10 10 11 12 13 13 14 15 17 18 19 21 22 23 25 26 28 29 31 33 33 34 36 37 37 38 39 39 40 40 41 42 42 43 44 46 46 47 47 47 48 49 49 50 51 51 53 55 55 56 56 58 60 58 58 60 60 60 61 63 65 65 65 66 67 68 69 70 71 72 73 74
7 6 6 6 6 4 4 4 4 5 6 6 7 7 8 9 10 11 12 13 14 15 16 17 18 20 21 22 24 25 27 28 30 30 31 33 34 35 36 37 37 38 38 39 40 41 41 42 43 43 43 45 46 46 47 46 47 49 50 51 52 52 52 53 54 56 55 57 59 58 57 59 60 62 65 66 67 67 68 69 70 71 72 73 74 75 76 77
7 7 7 7 6 5 5 5 6 6 6 7 7 8 9 10 11 12 12 13 15 16 17 19 20 21 23 24 25 27 28 29 31 32 33 34 35 35 36 37 37 38 39 40 42 43 43 43 43 43 44 45 46 47 48 48 49 51 53 54 55 54 53 53 55 57 56 57 59 58 58 59 61 65 69 70 69 71 72 73 74 74 74 74 74 74 75 76
7 7 7 7 6 6 6 6 6 6 7 7 8 9 10 11 11 12 13 14 16 17 19 20 22 23 25 26 27 28 29 30 32 33 33 34 34 35 36 37 38 39 40 42 42 44 44 44 44 44 45 46 48 50 51 53 54 55 56 57 57 57 56 55 55 56 57 59 62 61 60 63 65 67 71 72 72 73 74 74 74 73 72 71 72 73 74 75
7 7 7 7 7 6 7 7 6 7 7 8 9 10 11 12 13 14 15 16 18 19 20 22 23 24 25 27 28 29 30 31 32 32 33 33 34 35 36 38 39 40 41 42 42 42 44 45 44 45 46 47 50 51 53 55 56 56 56 57 58 57 55 55 55 55 57 61 64 65 64 65 68 70 72 73 74 74 74 73 72 72 73 73 74 75 75 76
7 7 7 7 7 7 7 7 7 7 8 9 10 11 12 13 14 15 16 18 19 21 22 23 24 25 26 28 29 29 30 30 31 31 33 34 35 36 37 38 40 41 41 41 41 41 43 44 45 44 45 48 50 51 52 54 55 55 55 56 57 56 55 56 55 55 58 63 65 66 67 67 71 73 73 73 73 73 71 70 70 72 73 73 73 75 77 78
6 6 7 7 6 6 7 7 7 8 9 10 11 12 13 14 16 17 18 19 21 22 23 24 25 27 28 28 28 29 29 30 31 32 34 35 37 38 39 39 40 40 41 41 41 42 43 44 45 46 47 49 50 51 52 54 55 56 56 57 59 58 57 58 59 58 60 64 66 67 69 72 74 72 70 71 71 69 69 69 69 69 70 71 73 75 78 80
6 6 6 6 6 6 7 7 8 9 10 11 13 14 15 16 17 18 19 20 21 23 24 25 26 27 27 28 28 29 30 31 33 34 36 37 38 39 39 40 40 40 40 41 42 43 45 46 47 48 50 51 52 53 54 56 57 57 58 60 61 60 59 60 62 63 64 67 68 69 72 75 74 70 67 68 66 64 65 67 68 69 71 73 75 76 77 78
7 6 6 5 6 6 7 8 9 10 12 13 14 15 16 17 18 19 20 21 23 24 25 26 26 27 27 28 29 30 32 33 35 36 37 38 39 39 39 39 39 39 40 41 42 44 46 48 49 50 51 52 53 54 55 57 58 57 58 60 61 60 59 60 63 67 69 71 71 73 75 76 74 71 66 61 58 58 62 65 67 70 72 73 75 77 78 79
7 7 6 6 6 7 8 9 10 12 13 14 15 16 17 18 19 20 22 23 24 25 25 25 26 27 28 29 31 32 34 35 36 37 38 38 38 38 38 39 39 39 41 42 43 44 46 49 51 52 53 54 54 55 56 58 59 57 58 60 61 60 60 62 65 68 72 74 73 74 75 74 72 67 60 56 56 59 62 65 67 70 72 74 76 78 78 79
7 7 6 6 7 8 9 11 12 13 14 15 16 16 18 19 20 22 23 24 24 24 25 26 26 28 29 31 33 34 35 37 37 38 38 38 37 38 38 38 39 40 42 43 44 46 48 49 51 52 54 55 56 56 56 58 59 58 58 60 61 60 61 64 67 70 73 74 75 74 72 70 67 61 57 58 61 64 65 67 69 71 74 76 77 78 77 77
7 7 7 7 8 9 11 12 13 13 14 15 16 17 19 20 22 23 23 23 24 24 25 26 28 29 31 32 34 35 36 37 37 37 37 37 36 37 38 39 40 41 43 45 46 47 49 49 50 52 54 55 55 55 55 57 59 59 59 61 62 62 63 66 69 72 73 74 75 72 67 66 64 59 59 62 65 67 69 71 72 74 76 78 78 77 75 73
7 7 8 8 9 11 12 12 13 14 15 16 17 19 20 21 22 22 23 23 24 25 26 28 29 31 32 34 35 36 36 37 36 36 36 36 36 37 38 39 41 43 44 46 47 49 50 50 51 52 54 54 54 55 56 58 60 60 61 63 65 65 67 68 71 74 74 74 74 69 63 62 62 60 62 65 67 69 71 73 75 76 77 77 75 74 71 69
8 8 9 10 11 11 12 13 14 15 16 17 18 20 21 21 22 22 22 23 25 26 28 29 31 32 33 34 35 36 36 35 35 35 35 36 37 37 39 40 42 44 46 47 48 49 51 52 52 54 55 55 55 56 58 59 61 62 63 65 67 68 69 71 73 74 73 72 69 64 61 61 61 62 65 66 68 71 73 74 76 76 75 73 72 70 68 66
9 9 10 10 11 11 12 13 14 15 17 18 19 20 20 21 21 22 23 24 26 27 28 30 31 33 34 34 35 35 35 34 34 34 35 36 37 39 41 42 44 45 47 48 49 50 51 53 54 55 56 56 56 57 59 61 62 63 64 66 67 69 71 73 74 73 70 67 64 60 60 61 61 63 66 67 69 72 74 75 75 74 72 70 68 67 66 64
9 9 10 10 11 12 13 14 15 16 18 18 19 19 20 20 21 23 24 25 27 28 29 31 32 33 34 34 34 34 34 34 34 34 36 37 39 41 43 44 46 47 48 49 50 51 53 53 54 56 58 57 57 60 61 62 63 64 65 66 68 69 71 72 72 69 65 62 60 60 62 62 61 63 66 68 70 72 73 75 74 72 69 67 67 66 65 64
8 9 10 11 11 12 14 15 16 17 18 18 19 19 20 21 22 23 24 26 27 29 30 32 33 33 34 34 33 33 33 34 34 36 37 39 41 43 44 45 47 48 49 50 51 52 53 54 55 57 60 59 59 61 62 63 64 64 65 67 69 70 71 71 69 65 61 60 60 61 63 63 63 65 67 69 70 72 73 74 74 71 67 66 66 66 65 64
9 9 10 11 12 13 14 16 16 17 18 18 19 19 20 21 22 24 25 27 28 30 31 32 33 33 33 33 33 33 33 35 36 37 39 41 42 44 45 46 47 48 49 50 52 52 54 55 57 59 62 61 61 63 64 65 66 66 67 68 69 70 71 70 67 62 58 58 61 63 64 65 66 68 69 70 71 72 74 75 74 70 67 67 66 65 65 64
Wind_Direction
262 261 260 258 260 253 237 232 232 231 232 232 232 231 230 231 232 235 237 236 239 239 237 242 246 250 254 256 258 259 260 263 264 267 270 272 273 273 273 274 274 273 272 272 271 271 271 271 270 271 272 273 275 277 278 281 283 283 285 288 287 284 284 286 288 287 289 294 295 294 296 298 299 295 292 293 293 290 291 290 287 287 288 290 292 294 294 290
258 258 259 258 260 257 240 231 231 230 231 231 230 231 232 235 237 241 243 239 239 243 243 246 250 252 254 256 258 260 262 263 265 268 270 272 272 271 272 273 273 272 271 269 268 267 267 269 270 272 273 274 276 278 279 280 282 283 286 287 283 283 285 289 290 288 290 294 294 294 296 298 298 296 294 292 292 293 289 284 286 291 296 297 295 291 288 286
254 256 259 258 259 255 241 232 229 226 229 228 228 232 233 235 237 241 244 243 241 243 245 248 252 253 255 256 258 261 263 264 266 268 270 270 270 270 271 271 270 269 265 264 264 265 267 269 272 274 276 277 277 278 279 280 281 284 287 286 283 284 286 289 289 290 294 294 292 295 298 298 296 296 295 292 293 293 287 288 293 298 299 296 292 287 284 283
253 255 258 258 258 250 240 235 226 223 227 226 226 229 231 233 236 240 243 243 241 241 243 246 250 252 255 257 258 262 263 264 264 265 266 266 267 268 268 267 265 262 261 263 265 267 269 271 273 275 276 277 277 277 280 281 282 284 285 283 283 285 288 289 287 290 296 294 293 298 299 297 296 294 293 293 293 290 291 297 299 295 291 289 288 287 286 284
254 257 260 257 253 246 239 234 221 219 224 225 224 224 229 235 237 241 242 243 243 243 245 247 250 253 256 258 259 261 261 260 260 261 262 263 264 264 262 260 260 262 264 267 269 270 272 273 274 275 275 277 278 279 281 284 284 286 287 284 283 285 289 288 288 292 294 293 296 299 297 295 293 292 293 292 291 293 298 298 293 289 287 286 285 285 286 287
254 259 260 255 252 245 237 231 220 215 218 221 222 223 228 234 237 242 245 247 249 250 250 250 253 255 256 258 259 259 256 255 257 259 259 260 259 258 258 260 263 266 269 271 273 274 274 275 275 275 277 278 281 283 283 285 286 288 290 287 285 287 287 287 289 292 292 294 297 297 296 293 291 291 292 291 294 297 295 289 287 287 286 285 285 285 286 287
256 260 257 252 249 238 229 226 219 213 213 217 220 224 229 233 238 244 248 251 254 255 254 253 253 254 255 255 255 255 253 253 256 256 255 254 254 257 260 264 268 271 272 273 274 274 274 274 276 278 281 283 286 287 286 288 288 289 289 287 288 288 286 287 289 290 293 296 297 295 294 291 290 291 292 294 296 292 288 287 287 286 286 286 287 287 288 288
258 259 253 248 235 218 219 222 215 211 213 217 224 230 234 237 241 245 248 252 254 255 254 252 251 250 250 249 250 251 251 251 251 252 253 254 257 261 265 267 269 271 272 272 272 273 274 277 281 284 285 287 288 287 288 290 290 289 287 286 287 287 287 288 289 290 293 295 295 294 292 289 289 291 294 294 291 288 287 287 287 287 288 289 289 289 289 289
256 254 249 241 217 201 211 217 214 214 217 222 229 234 236 238 241 243 246 247 247 248 249 249 247 245 244 243 244 246 247 248 248 251 255 259 262 265 267 268 269 270 270 271 272 275 278 282 285 287 287 288 288 288 289 289 289 288 286 285 286 286 286 288 288 290 292 294 293 293 291 289 290 292 292 290 287 287 287 287 287 288 289 290 290 290 291 292
246 242 238 225 203 194 202 206 209 214 218 223 227 230 232 233 235 238 238 237 237 238 240 241 240 238 237 238 240 243 245 247 251 255 259 262 264 266 267 268 269 269 270 274 277 281 284 286 286 286 287 288 287 288 289 289 288 287 285 286 285 284 286 287 288 290 291 292 292 293 291 289 290 291 289 287 286 286 285 286 287 287 289 291 292 292 294 295
228 227 220 204 193 195 199 197 201 206 212 217 221 223 224 225 227 229 229 228 228 230 232 233 234 235 236 238 240 245 248 252 257 261 263 264 265 266 267 268 269 270 273 278 281 284 286 286 286 286 287 288 288 289 289 289 288 286 285 287 285 283 285 286 286 288 289 290 291 293 292 291 291 288 286 286 284 283 283 284 287 289 291 292 291 293 294 294
210 210 203 190 182 190 197 198 198 201 206 211 214 215 215 217 219 221 222 224 225 227 229 231 234 236 239 242 244 248 254 259 263 264 265 266 266 266 266 267 270 274 278 281 283 285 286 285 286 287 288 288 290 290 289 288 286 285 285 285 285 284 285 285 285 286 287 289 289 291 294 292 288 287 288 287 283 283 284 286 289 290 289 288 288 290 291 291
196 195 191 186 180 182 189 194 197 200 204 207 210 210 210 211 211 214 218 221 224 226 229 232 236 238 242 247 250 253 258 263 266 267 268 267 266 265 266 270 274 278 281 282 283 283 284 285 286 289 291 290 291 291 290 288 285 285 285 284 283 283 284 285 286 287 287 289 288 289 294 287 284 287 285 283 284 287 289 289 288 286 285 285 286 287 288 289
185 185 184 182 181 184 187 190 195 198 202 205 209 211 212 211 211 214 218 223 227 229 233 236 239 243 247 251 256 259 263 266 268 269 269 268 268 269 272 277 279 281 281 281 282 282 283 287 289 292 293 292 292 292 290 289 286 286 286 285 284 283 283 283 286 288 289 289 288 289 289 280 281 283 281 282 287 290 291 290 288 287 286 286 287 287 288 289
170 173 177 178 180 185 190 193 197 199 202 205 209 214 217 217 218 220 224 229 233 236 239 241 244 247 250 255 259 263 265 267 268 268 268 269 273 277 280 282 283 283 282 282 283 284 287 291 293 294 294 294 294 293 292 290 289 289 289 289 288 285 284 284 284 286 287 288 289 289 287 282 279 275 278 285 289 289 289 290 291 292 291 290 290 289 289 290
153 158 168 174 178 184 191 196 199 203 206 208 211 217 221 222 224 226 230 234 237 242 244 246 250 252 256 260 262 264 266 266 266 265 268 272 276 280 283 283 283 283 282 283 285 287 291 294 296 296 296 296 296 295 294 293 292 291 291 291 291 290 289 288 287 285 285 288 290 290 288 286 281 275 277 283 285 286 285 287 289 290 291 291 291 290 290 290
135 150 162 168 175 184 192 194 200 208 211 213 217 222 226 226 227 230 234 238 242 247 250 253 255 258 261 263 265 265 264 263 262 264 268 274 278 282 284 286 286 285 284 285 286 290 294 297 299 298 299 300 299 298 297 296 296 296 294 291 289 290 291 292 291 288 287 289 290 290 290 288 282 279 280 282 283 284 283 283 283 283 285 286 287 289 289 289
124 142 157 164 172 184 193 193 201 210 213 218 223 228 231 230 232 235 238 244 248 252 255 257 258 260 262 263 263 262 260 259 259 264 270 275 282 286 287 288 288 288 288 287 289 293 297 300 301 301 301 302 301 300 300 299 299 300 299 297 295 294 293 295 293 290 290 291 289 289 289 288 284 283 285 285 285 284 283 281 280 279 279 280 282 284 285 286
117 126 144 160 169 180 190 191 196 208 215 220 224 228 230 232 235 238 243 249 252 254 254 255 257 258 258 259 259 258 257 258 262 269 275 281 286 289 289 289 289 289 288 289 293 297 300 303 302 302 303 302 299 299 300 300 300 299 299 299 299 297 296 294 291 290 292 292 290 289 289 288 285 285 288 288 287 286 284 282 280 279 278 278 278 279 281 282
111 111 121 141 162 179 186 189 192 203 212 217 220 223 226 230 235 239 244 248 251 253 252 253 257 258 258 258 257 256 256 261 269 276 282 287 290 290 290 289 290 291 291 292 295 298 302 303 302 301 301 300 300 300 299 299 299 298 297 297 296 296 295 292 289 289 290 289 289 290 289 287 286 286 288 289 288 287 286 285 283 282 280 279 279 278 278 279
108 106 103 112 144 174 183 190 197 205 210 212 217 221 225 230 234 237 239 243 247 250 251 254 257 259 258 257 255 255 259 266 275 281 287 289 291 291 291 291 292 293 293 296 298 299 301 301 300 300 298 298 299 300 300 299 298 297 296 295 294 293 293 291 290 290 289 288 289 290 289 287 286 287 288 288 287 287 287 286 285 285 283 282 281 280 279 278
103 103 98 99 119 152 173 190 199 205 206 206 212 218 225 230 234 236 234 238 244 249 254 258 260 261 259 257 256 259 265 272 277 282 287 289 291 292 293 295 296 297 296 297 299 299 298 297 296 295 295 297 298 298 298 298 297 296 295 294 294 294 292 291 291 291 290 290 290 290 288 287 286 288 288 288 288 288 288 288 287 286 285 284 283 282 280 279
101 100 96 94 106 134 161 181 192 197 199 203 211 216 224 229 230 230 231 239 249 257 262 265 265 261 257 257 259 266 272 276 280 283 287 289 291 293 295 297 298 299 298 297 297 296 295 295 293 291 292 293 294 294 294 294 295 295 294 295 294 293 292 291 291 292 292 292 292 291 289 287 288 288 288 289 289 289 288 288 288 287 287 286 286 285 284 282
102 96 91 89 98 127 152 168 179 183 190 201 207 211 220 224 221 227 244 256 264 271 273 272 270 263 260 262 266 272 276 279 282 285 288 289 292 294 296 297 297 297 297 296 296 295 295 295 294 293 293 293 292 292 293 293 294 294 294 294 293 292 291 291 291 291 291 292 292 292 290 289 289 289 288 288 288 288 288 288 288 288 288 288 288 288 286 285
99 92 86 82 90 117 140 151 159 165 175 185 185 192 219 244 273 278 274 272 274 277 278 276 272 268 267 269 272 276 279 281 284 286 288 290 292 294 295 296 296 296 296 295 296 296 296 295 294 294 294 294 294 294 295 295 295 294 293 292 292 292 292 292 292 291 291 291 291 292 291 290 290 290 289 289 289 289 289 289 289 289 289 289 289 288 287 286
93 88 82 79 85 101 122 137 140 139 137 125 114 90 330 317 318 307 288 278 279 278 277 277 276 276 277 276 278 279 281 283 285 288 290 292 293 295 296 296 296 297 297 296 296 296 295 294 294 294 295 295 295 295 295 295 294 293 292 292 292 292 292 293 292 292 292 291 291 292 292 292 291 290 290 290 290 289 290 290 290 290 290 290 289 288 287 286
85 80 77 77 81 81 96 122 130 123 106 93 80 46 341 326 320 309 294 285 285 284 282 282 282 283 283 283 283 283 284 286 288 290 292 293 295 296 296 297 297 297 297 297 296 296 296 296 296 296 296 296 296 296 295 295 294 293 292 292 293 293 293 293 292 292 292 291 291 292 292 292 291 290 290 290 289 289 289 289 290 290 290 290 289 289 288 287
77 73 72 75 72 64 79 110 124 114 95 83 66 39 352 334 322 309 301 294 291 291 291 290 289 289 288 288 287 287 288 289 290 292 293 294 296 297 298 298 298 298 297 297 297 297 298 298 298 298 298 298 297 297 297 296 295 294 294 294 293 293 293 292 292 292 292 291 292 293 292 292 291 291 291 290 290 290 289 289 290 290 290 290 290 289 288 288
72 65 61 65 60 53 75 105 117 113 92 72 50 25 354 335 316 305 303 299 296 296 297 297 296 294 292 291 291 291 292 293 293 294 295 296 297 298 299 299 300 299 299 299 298 299 300 300 300 300 300 300 299 299 298 297 296 296 295 294 294 294 294 294 294 293 293 293 294 293 291 292 292 293 293 294 294 293 292 292 291 290 290 289 289 288 288 287
63 56 53 51 44 39 79 107 112 108 74 47 27 3 339 319 305 298 299 300 301 304 305 304 301 299 297 296 296 296 296 295 296 297 297 298 299 299 300 300 300 300 299 300 300 301 302 302 302 301 301 301 300 299 299 298 298 298 297 296 296 296 296 295 295 294 294 295 297 297 295 295 296 296 297 297 296 295 293 292 291 289 288 287 287 287 287 287
51 44 43 33 22 12 28 133 104 57 34 24 358 334 315 302 298 298 303 308 310 311 311 308 305 303 302 301 300 300 299 299 299 299 299 300 301 301 300 300 301 301 301 302 302 302 302 302 302 302 301 300 299 299 300 300 300 300 299 299 298 297 296 297 298 298 298 299 301 302 300 298 297 296 296 296 296 294 292 291 290 289 288 287 287 286 285 285
37 29 22 11 3 357 354 317 307 330 351 353 326 309 303 301 302 307 313 315 314 314 313 311 309 308 307 305 304 303 302 302 302 301 301 302 302 302 302 302 302 302 302 303 303 304 304 304 303 303 303 302 301 301 302 302 302 302 302 302 302 302 301 301 302 302 303 303 303 303 301 299 297 296 296 295 294 292 291 290 289 288 288 287 286 285 285 285
21 10 1 356 352 349 344 322 317 324 331 324 312 311 314 313 312 316 320 318 315 315 314 313 311 310 308 306 305 305 304 304 304 303 303 303 303 303 304 304 305 305 305 305 305 305 305 305 305 306 305 305 305 305 305 305 305 305 306 306 307 308 308 307 307 305 305 304 303 303 301 299 297 296 295 294 292 292 292 292 292 292 291 290 289 289 289 288
8 359 350 346 344 339 328 318 316 315 318 316 320 324 323 320 319 320 321 317 316 316 314 313 311 309 308 306 306 305 305 305 305 305 305 305 306 306 307 307 308 308 308 308 308 308 309 309 309 308 307 307 308 308 309 309 309 309 310 311 312 312 311 310 309 308 306 304 304 304 302 299 299 299 298 297 295 296 297 297 297 295 294 294 294 293 293 292
357 349 341 336 334 330 320 317 318 318 323 326 330 330 326 324 323 322 321 318 317 316 314 312 310 309 308 308 308 307 306 306 305 306 307 308 309 309 309 309 309 309 309 309 309 309 310 310 310 310 309 309 310 310 310 310 311 311 312 312 312 312 311 310 309 308 307 304 305 306 304 303 303 303 301 300 299 300 299 298 297 296 295 295 295 294 293 292
346 338 333 330 329 327 323 327 330 330 332 333 334 331 326 324 322 321 320 318 316 315 313 312 311 310 310 310 309 308 308 308 308 309 310 310 310 310 310 310 310 310 310 310 310 309 310 311 311 311 311 310 310 310 310 310 311 311 311 311 311 312 311 310 309 308 307 305 306 309 307 305 305 303 301 301 301 301 299 298 297 297 297 296 296 295 294 293
336 331 330 330 329 330 331 334 336 334 335 336 335 329 323 321 319 319 318 316 315 314 314 314 313 312 311 310 310 310 311 311 311 312 312 312 313 313 313 312 312 312 312 312 312 312 311 312 312 312 312 312 312 312 313 312 312 312 312 312 313 313 312 311 310 310 310 308 308 308 307 306 305 303 302 304 304 303 302 301 300 299 299 298 298 296 295 293
328 328 330 332 332 332 332 335 337 337 338 336 329 323 320 319 319 318 317 315 315 315 314 314 313 312 312 312 313 313 314 314 314 314 314 314 315 314 314 314 314 314 314 314 315 314 314 314 315 315 316 316 316 316 316 315 315 315 315 314 314 314 313 313 312 313 312 310 308 308 307 306 305 305 305 306 305 304 303 302 300 299 298 297 295 293 291 290
327 331 332 333 334 332 333 338 341 339 336 329 322 319 318 318 318 318 317 317 316 315 314 314 314 314 315 315 315 315 315 315 315 316 316 316 316 316 316 316 316 316 317 317 317 317 317 317 318 319 319 318 317 317 317 316 316 315 315 314 314 314 314 312 312 312 311 309 309 309 309 308 307 307 307 306 304 303 301 299 298 297 296 295 295 293 292 291
333 335 333 334 334 333 336 340 338 332 325 321 317 316 316 318 319 319 317 316 316 316 315 316 316 317 317 317 317 317 317 317 317 317 317 318 318 318 318 318 318 319 319 319 319 319 318 318 318 319 318 317 316 316 316 315 315 314 314 313 313 313 312 311 311 312 311 311 312 311 309 309 308 308 306 304 303 300 299 298 298 298 298 297 297 295 294 293
335 334 333 335 334 334 335 332 325 321 318 316 314 315 318 319 319 318 317 317 317 318 318 318 318 318 318 318 319 319 319 319 319 320 320 320 320 320 320 320 321 321 321 321 320 319 318 317 317 318 317 316 316 315 315 315 315 315 314 314 314 314 315 315 315 314 313 312 313 310 308 309 309 308 305 303 302 302 302 302 301 300 298 297 296 295 294 294
333 331 330 329 327 324 323 319 316 315 316 315 316 319 320 319 319 318 318 318 319 320 320 320 319 320 320 320 320 321 321 322 322 323 322 322 322 322 322 322 322 322 321 320 320 319 318 317 317 318 318 318 318 317 317 317 317 317 315 315 316 316 317 317 317 315 313 312 312 309 308 309 310 308 305 304 304 303 302 301 299 298 298 297 297 296 295 295
325 322 317 312 310 310 311 313 313 315 317 317 318 320 320 319 319 319 320 321 321 321 321 321 321 321 322 322 322 323 324 324 324 324 324 324 324 323 323 322 322 322 321 320 319 319 319 318 319 319 319 319 319 318 318 317 318 317 316 315 316 316 317 317 316 315 313 312 313 311 310 310 310 308 306 305 303 300 299 298 299 299 300 300 299 298 297 297
315 307 301 299 302 307 311 314 315 317 318 318 320 320 320 320 320 321 322 322 322 322 322 322 323 323 323 324 325 325 325 325 325 325 325 324 324 323 323 322 322 321 320 320 320 320 320 320 321 321 320 320 320 319 319 317 317 316 315 315 315 316 317 316 315 314 313 314 314 312 310 310 309 308 308 306 303 300 300 301 302 302 302 302 301 300 300 300
298 292 293 297 304 310 313 314 315 316 318 319 320 320 320 321 322 322 322 322 322 323 323 324 324 325 325 326 326 326 326 326 326 325 324 324 324 323 323 322 322 321 321 321 321 321 322 322 322 322 322 322 321 321 319 317 316 316 315 315 315 316 316 316 315 315 314 314 314 312 310 309 309 310 308 306 305 304 304 305 305 306 306 305 304 303 303 303
286 287 294 302 309 312 313 313 315 317 319 320 320 321 321 322 322 322 322 322 323 324 324 325 326 327 327 327 327 327 327 326 325 324 324 324 324 323 323 323 322 322 322 322 322 322 322 323 323 323 322 322 321 320 319 317 316 317 316 315 315 316 317 317 317 316 315 314 314 313 310 309 311 310 308 308 307 308 309 309 310 310 309 307 307 306 306 305
286 291 300 306 310 311 312 314 316 319 321 321 321 321 322 321 322 322 323 324 325 325 326 327 327 328 328 328 328 328 327 326 325 325 324 324 324 324 323 323 323 323 323 323 323 323 323 323 323 322 322 321 320 319 318 317 316 317 317 316 316 317 318 318 318 318 316 314 314 313 310 309 311 311 311 311 311 312 312 313 313 313 311 310 309 307 306 305
294 301 306 309 309 311 313 316 318 320 320 320 321 321 321 322 322 323 324 325 325 327 328 328 328 329 329 329 329 327 327 326 326 325 325 325 324 324 324 324 324 324 324 324 324 324 323 323 322 322 322 321 320 318 318 317 316 317 317 317 318 319 319 320 320 319 317 315 313 312 310 310 312 313 314 314 314 314 314 315 316 315 313 310 308 307 306 307
302 306 307 308 309 312 315 317 318 318 318 319 320 321 322 323 323 324 325 326 327 328 329 329 330 330 330 330 329 328 327 327 326 325 325 326 325 325 325 325 325 325 325 325 324 324 324 323 323 322 322 322 320 318 318 317 317 318 319 319 319 320 321 322 321 319 317 314 312 311 311 312 314 316 316 316 316 315 316 317 317 315 313 311 309 309 310 310
305 305 306 307 309 313 316 317 317 317 318 320 321 322 323 323 324 325 327 328 328 329 330 331 331 331 331 330 329 328 327 327 327 326 327 327 326 326 326 327 326 326 326 326 326 325 325 324 323 322 322 323 321 319 320 320 320 320 320 319 320 322 322 323 321 319 315 312 311 311 311 313 316 316 316 317 317 317 318 318 318 317 316 314 313 313 313 313
303 303 305 307 311 314 315 315 316 317 320 321 321 322 323 324 325 327 328 329 329 331 332 332 332 332 332 331 329 328 328 328 328 328 328 327 327 327 328 328 327 327 327 327 326 326 325 325 324 323 323 324 323 321 321 321 321 320 320 320 322 323 323 323 321 318 313 311 312 312 313 315 317 316 316 318 318 318 319 320 320 321 319 316 316 316 315 316
302 303 306 309 312 313 313 315 318 320 321 321 321 322 323 325 327 328 329 330 331 333 334 333 333 333 332 331 329 329 329 329 329 329 328 328 329 329 329 328 328 328 328 328 327 327 326 326 326 324 324 325 325 323 323 322 322 322 323 323 324 323 323 322 321 317 314 313 314 315 316 317 318 318 319 319 319 320 321 323 324 323 320 318 317 317 317 318